Location: Melbourne
(37.8666°S, 145.1333°E)
Time: 03:44:57
(UTC+10:00)

Daily predictions for brighter satellites

Satellite Brightness Start Highest point End
(mag) Time Altitude Azimuth Time Altitude Azimuth Time Altitude Azimuth
USA 184 4.3 03:16:10 56° SSW 03:18:55 77° ESE 03:54:27 10° NNE
SL-16 R/B 4.0 04:05:45 10° S 04:08:15 25° S 04:08:15 25° S
Cosmos 2123 Rocket 4.2 04:06:09 10° S 04:12:31 71° E 04:18:50 10° NNE
SL-24 R/B - RUBIN 2 4.4 04:30:04 61° NNE 04:30:04 61° NNE 04:34:59 10° NNE
DELTA 2 R/B (1) 3.6 04:29:54 74° E 04:29:54 74° E 04:35:00 10° ESE
Cosmos 2369 Rocket 3.4 04:33:40 31° S 04:33:40 31° S 04:36:50 10° SSE
ATLAS 3B R/B 2.5 04:34:35 63° NNW 04:35:47 90° ESE 04:42:37 10° SSE
Cosmos 1932 4.4 04:36:40 63° SW 04:36:40 63° SW 04:42:25 10° SSE
CZ-4C R/B 4.0 04:48:07 24° SSW 04:48:07 24° SSW 04:52:49 10° S
USA 238 DEB 3.9 04:43:05 24° NNW 04:47:40 76° ENE 04:54:52 10° SE
USA 238 3.9 04:43:05 24° NNW 04:47:47 75° ENE 04:54:58 10° SE
Cosmos 1356 Rocket 4.5 04:43:36 10° S 04:47:50 47° ESE 04:51:59 10° NNE
Cosmos 2098 Rocket 3.7 04:55:56 45° SSW 04:55:56 45° SSW 04:59:41 10° S
Cosmos 1153 Rocket 4.4 04:49:56 10° N 04:56:09 85° W 05:02:33 10° S
Cosmos 1743 Rocket 4.2 04:54:10 10° S 04:58:30 54° E 05:02:47 10° NNE
Cosmos 1943 Rocket 2.2 04:59:43 53° WSW 04:59:52 53° WSW 05:05:19 10° SSE
Cosmos 1607 4.2 04:59:57 46° WSW 05:00:41 48° SW 05:06:50 10° SSE
OTV 4 2.1 05:04:17 32° E 05:04:17 32° E 05:05:58 10° E
CSL-04 Rocket 4.1 04:58:26 10° NNE 05:03:41 60° ESE 05:08:57 10° S
Lacrosse 5 3.3 05:03:52 16° SSW 05:07:22 34° SE 05:12:03 10° ENE
Cosmos 1624 Rocket 4.1 05:13:03 10° NNW 05:18:22 83° ENE 05:23:46 10° SSE
CZ-2C R/B 2.9 05:15:23 10° NNE 05:19:53 57° ESE 05:24:27 10° S
IDEFIX/ARIANE 42P 2.9 05:16:17 10° NNE 05:21:32 69° ESE 05:26:52 10° S
CSL-04 Debris 4.3 05:18:16 10° NNE 05:23:46 80° ESE 05:29:20 10° SSW
SL-14 R/B 3.1 05:22:49 10° S 05:26:47 86° W 05:30:39 10° N
Ariane Rocket 2.9 05:22:31 10° N 05:27:38 75° WNW 05:32:49 10° SSW
Hubble Space Telescope 2.5 05:26:40 18° NNW 05:27:58 21° N 05:31:07 10° NE
Cosmos 1459 Rocket 4.0 05:23:12 10° N 05:29:34 80° W 05:36:03 10° S
Cosmos 44 Rocket 3.5 05:25:26 10° NNW 05:30:14 73° ENE 05:35:13 10° SE
Cosmos 2056 Rocket 3.4 05:26:03 10° NNW 05:31:12 82° WSW 05:36:24 10° SSE
CZ-4 R/B 2.4 05:27:32 10° NNE 05:31:37 51° ESE 05:35:46 10° S
ISS -1.3 05:37:36 11° NNW 05:37:36 11° NNW 05:37:56 10° NNW
Cosmos 1626 3.8 05:33:00 10° S 05:36:33 37° E 05:40:05 10° NNE
Cosmos 1842 Rocket 3.7 05:35:28 10° NNW 05:39:52 54° W 05:44:21 10° S
Cosmos 1703 4.4 05:36:35 10° S 05:40:32 48° E 05:44:25 10° NNE
Cosmos 2058 3.2 05:36:59 10° S 05:41:17 74° E 05:45:31 10° NNE
COSMOS 2455 3.0 05:37:03 10° NNW 05:43:02 78° ENE 05:49:06 10° SSE
GPS 2-04 Rocket1 3.0 05:42:21 24° WNW 05:44:46 65° N 05:48:54 10° ENE
Cosmos 1656 Rocket 3.9 05:42:03 10° NW 05:47:23 47° WSW 05:52:50 10° S
CORIOLIS 4.5 05:46:18 10° NNE 05:51:42 72° ESE 05:57:12 10° S
PAYLOAD A 4.3 05:47:54 10° N 05:52:39 42° W 05:57:17 10° SSW
Cosmos 2100 Rocket 4.3 05:53:06 10° NNW 05:58:54 42° WSW 06:04:50 10° S
MSX 3.8 05:54:53 10° N 06:00:39 80° WNW 06:06:31 10° SSW
NOSS 3-2 (A) 4.0 05:54:48 10° NW 06:02:59 74° SW 06:10:35 10° SSE
BREEZE-M DEB (TANK) 3.6 05:57:35 11° WSW 06:03:54 31° WNW 06:06:43 10° N
Cosmos 921 Rocket 3.9 06:01:12 10° NW 06:05:09 30° WSW 06:09:06 10° S
Cosmos 1452 Rocket 3.6 06:01:17 10° NNW 06:06:34 85° ENE 06:11:56 10° SSE
Cosmos 1190 Rocket 4.0 06:01:43 10° SSW 06:06:56 63° WNW 06:12:05 10° N
Cosmos 2173 Rocket 4.4 06:04:54 10° NW 06:10:31 37° WSW 06:16:11 10° S
Cosmos 2221 2.5 06:08:03 10° NNW 06:12:17 59° W 06:16:37 10° S
Cosmos 724 4.3 06:07:23 10° NW 06:13:04 62° WSW 06:18:49 10° SSE
Cosmos 1908 3.5 06:09:31 10° N 06:13:27 76° E 06:17:28 10° S
Cosmos 2297 Rocket 3.9 06:08:51 10° S 06:13:58 33° ESE 06:19:02 10° ENE
EO 1 Del DPAF 4.5 06:11:28 10° SSW 06:14:35 23° WSW 06:17:39 10° WNW
Meteor 2-1 Rocket 4.5 06:09:39 10° NNW 06:15:26 56° WSW 06:21:20 10° S
Meteor 1-28 Rocket 4.0 06:11:38 10° SSE 06:15:29 59° E 06:19:17 10° N
Cosmos 2061 Rocket 4.5 06:09:56 10° NW 06:15:37 37° WSW 06:21:26 10° S
DELTA 2 R/B (1) 3.7 06:10:41 11° W 06:16:00 74° S 06:21:37 10° E
Cosmos 2219 3.4 06:13:48 10° SSW 06:19:29 56° WNW 06:25:04 10° N
YAOGAN 1 2.6 06:17:04 10° N 06:21:22 61° W 06:25:44 10° SSW
Cosmos 407 Rocket 3.7 06:16:53 10° SSW 06:22:06 52° WNW 06:27:17 10° N
Cosmos 1420 Rocket 4.2 06:20:38 10° NNW 06:25:53 81° ENE 06:31:10 10° SSE
USA 267 3.5 06:20:29 10° SE 06:27:07 79° NE 06:33:42 10° NW
ATLAS 3B R/B 4.0 06:22:40 10° W 06:27:26 20° SW 06:32:23 10° S
Cosmos 44 3.7 06:24:55 10° NW 06:29:24 43° SW 06:34:13 10° SSE
SKYMED 2 3.6 06:25:40 10° SSE 06:30:06 88° WSW 06:34:28 10° NNW
